Terug naar catalogus

IRIDIUM 33 DEB

ActiefPO
NORAD 35484·DEBRIS·🇺🇸 United States

Gelanceerd Sep 14, 1997 vanaf Baikonur Cosmodrome

Loading…

Volgende Passages (komende 24 uur)

TLE

VersSource: Space-Track

Epoch: Sep 12, 2026, 04:32 UTC

1 35484U 97051QE  26255.18948362  .00047429  00000-0  19573-2 0  9990
2 35484  86.3412 221.8375 0012204 161.4879 198.6812 15.23778202661468

Volg IRIDIUM 33 DEB in realtime met AllMySat

Download on the App Store